Station KP58 - Port Hope, MI Image indicating link to RSS feed of recent meteorological observations for station KP58


Conditions at KP58 as of
(3:55 pm EDT)
1955 GMT on 04/23/2024:
     

Click on the graph icon in the table below to see a time series plot of the last five days of that observation.

5-day plot - Wind Direction Wind Direction (WDIR):WSW ( 240 deg true )
5-day plot - Wind Speed Wind Speed (WSPD): 9.9 kts
5-day plot - Wind Gust Wind Gust (GST): 24.1 kts
5-day plot - Atmospheric Pressure Atmospheric Pressure (PRES):29.64 in
5-day plot - Air Temperature Air Temperature (ATMP): 63.0 °F
5-day plot - Dew Point Dew Point (DEWP): 41.0 °F
5-day plot -  Wind Speed, Wind Gust and Atmospheric Pressure Combined plot of Wind Speed, Gust, and Air Pressure
Previous observations
TIME
(EDT)
5-day plot - Wind Direction
WDIR
 
5-day plot - Wind Speed
WSPD
kts
5-day plot - Wind Gust
GST
kts
5-day plot - Wave Height
WVHT
ft
5-day plot - Dominant Wave Period
DPD
sec
5-day plot - Average Wave Period
APD
sec
5-day plot - Mean Wave Direction
MWD
 
5-day plot - Atmospheric Pressure
PRES
in
5-day plot - Pressure Tendency
PTDY
in
5-day plot - Air Temperature
ATMP
°F
5-day plot - Water Temperature
WTMP
°F
5-day plot - Dew Point
DEWP
°F
5-day plot - Salinity
SAL
psu
5-day plot - Visibility
VIS
nmi
5-day plot - Tide (above MLLW)
TIDE
ft
2024-04-23 02:55 pm SW 15.0 27.0----29.63- 64.0- 42.1---
2024-04-23 01:55 pm SW 8.9 22.9----29.65- 63.0- 42.1---
2024-04-23 12:55 pmWSW 8.9 22.0----29.65- 62.1- 41.0---
2024-04-23 11:55 amWSW 13.0 24.1----29.66- 59.0- 41.0---
2024-04-23 10:55 amSSW 9.9 20.0----29.67- 55.9- 42.1---
2024-04-23 09:55 am S 8.9 21.0----29.67- 52.0- 42.1---
2024-04-23 08:55 am S 8.9 21.0----29.70- 50.0- 42.1---
2024-04-23 07:55 am S 6.0 15.9----29.74- 48.9- 41.0---
2024-04-23 06:55 amSSE 2.9-----29.77- 48.0- 41.0---
2024-04-23 05:55 am- 4.1-----29.76- 55.0- 33.1---
2024-04-23 04:55 amSSW 5.1-----29.78- 54.0- 33.1---
2024-04-23 03:55 am- 5.1-----29.78- 54.0- 32.0---
2024-04-23 02:55 amSSW 7.0-----29.80- 55.0- 32.0---
2024-04-23 01:55 am S 7.0-----29.83- 54.0- 32.0---
2024-04-23 12:55 am- 4.1-----29.85- 54.0- 32.0---
2024-04-22 11:55 pm- 2.9-----29.86- 55.0- 30.9---
2024-04-22 10:55 pm- 0.0-----29.88- 54.0- 32.0---
2024-04-22 09:55 pm- 0.0-----29.88- 55.9- 30.9---
2024-04-22 08:55 pm- 2.9-----29.87- 59.0- 28.9---
2024-04-22 07:55 pm SW 6.0-----29.88- 61.0- 28.9---
2024-04-22 06:55 pm SW 7.0 20.0----29.90- 63.0- 28.9---
2024-04-22 05:55 pm SW 12.0 21.0----29.92- 64.0- 28.9---
2024-04-22 04:55 pm SW 14.0 27.0----29.94- 64.0- 28.9---
2024-04-22 03:55 pm W 8.9 22.0----29.97- 63.0- 28.0---